Flag for U.S.A. Weather past 2 weeks in Warminster Township, Pennsylvania, U.S.A.

Now
23 °F

Mostly cloudy.


Feels Like: 12 °F
Forecast: 18 / 27 °F
Wind: 10 mph from North

Location: Doylestown Airport

Current Time: Jan 27, 2015 at 1:07:52 AM

Latest Report: Jan 26, 2015 at 11:54 PM


Visibility: 10 mi

Pressure: 29.72 "Hg

Humidity: 81%

Dew point: 18 °F

Location of Warminster TownshipLocation

Historic Weather in Warminster Township — Graph

°F

Warminster Township temperature yesterday

Maximum temperature yesterday: 27 °F (at 12:54 AM)
Minimum temperature yesterday: 19 °F (at 8:54 AM)
Average temperature yesterday: 22 °F

Past Weeks' High & Low Weather Summary

 TemperatureHumidityPressure
High41 °F (Jan 19, 11:54 AM)100% (Jan 12, 7:54 AM)30.62 "Hg (Jan 12, 7:54 AM)
Low10 °F (Jan 17, 6:54 AM)27% (Jan 17, 2:54 PM)29.31 "Hg (Jan 24, 3:03 PM)
Average28 °F77%30.07 "Hg
* Reported Jan 11 11:54 PM — Jan 26 11:54 PM, Warminster Township, Weather by CustomWeather, © 2014

Note: Actual official high and low records may vary slightly from our data, if they occured in-between our weather recording intervals... More about our weather records

Advertising

Warminster Township weather history for previous 24 hours

 ConditionsComfort  
Time TempWeatherWind HumidityBarometerVisibility
11:54 PM
Jan 26
23 °FMostly cloudy.10 mph81%29.72 "Hg10 mi
10:54 PM25 °FOvercast.13 mph81%29.73 "Hg10 mi
9:54 PM25 °FLight snow. Ice fog.16 mph85%29.76 "Hg6 mi
8:54 PM25 °FLight snow. Ice fog.16 mph85%29.78 "Hg6 mi
7:54 PM23 °FLight snow. Ice fog.15 mph96%29.80 "Hg1 mi
6:54 PM23 °FLight snow. Ice fog.15 mph92%29.80 "Hg2 mi
6:01 PM22 °FLight snow. Ice fog.15 mph92%29.78 "Hg2 mi
4:54 PM22 °FOvercast.13 mph89%29.81 "Hg7 mi
3:54 PM21 °FLight snow. Ice fog.13 mph88%29.81 "Hg5 mi
2:54 PM22 °FLight snow. Ice fog.10 mph89%29.82 "Hg4 mi
1:54 PM22 °FLight snow. Ice fog.13 mph89%29.84 "Hg2 mi
12:54 PM24 °FLight snow. Overcast.13 mph81%29.85 "Hg5 mi
11:54 AM22 °FLight snow. Ice fog.10 mph89%29.88 "Hg6 mi
10:54 AM22 °FLight snow. Ice fog.12 mph89%29.91 "Hg4 mi
9:54 AM20 °FLight snow. Ice fog.10 mph89%29.93 "Hg4 mi
8:54 AM19 °FLight snow. Ice fog.7 mph92%29.96 "Hg1 mi
7:54 AM20 °FOvercast.7 mph85%29.96 "Hg10 mi
6:54 AM20 °FOvercast.7 mph89%29.95 "Hg10 mi
6:01 AM20 °FLight snow. Ice fog.6 mph96%29.92 "Hg3 mi
4:54 AM22 °FLight snow. Ice fog.9 mph92%29.96 "Hg4 mi
3:54 AM23 °FLight snow. Ice fog.6 mph96%29.96 "Hg2 mi
2:54 AM24 °FLight snow. Ice fog.7 mph88%29.97 "Hg2 mi
1:54 AM24 °FLight snow. Ice fog.8 mph84%29.97 "Hg4 mi
Weather by CustomWeather, © 2014

See weather overviewHow to use our weather pages